Simultaneous Nadir Overpasses (SNOs) Predictions

Prediction of SNOs between LANDSAT-8 and METOP-B Satellite Orbit:

Table of predicted SNOs for the next 14.0 days since TLE Epoch: 3/26/2022
Index Date (LANDSAT-8) Time (LANDSAT-8) Lat,Lon (LANDSAT-8) SZA (LANDSAT-8 ) Date (METOP-B) Time (METOP-B) Lat,Lon (METOP-B) SZA (METOP-B ) Distance(km) Time Diff (sec)
1 03/28/2022 16:28:54 81.08, -28.48 79.74 03/28/2022 16:27:53 81.08, -28.41 79.73 1.23 61
2 03/28/2022 17:18:20 -81.10, 139.47 100.23 03/28/2022 17:18:33 -81.09, 139.31 100.24 2.77 13
3 03/31/2022 12:03:05 81.08, 38.08 78.69 03/31/2022 12:02:15 81.08, 38.09 78.67 0.24 50
4 03/31/2022 12:52:31 -81.11,-153.95 101.28 03/31/2022 12:52:54 -81.11,-153.81 101.25 2.56 23
5 04/03/2022 07:37:17 81.08, 104.55 77.63 04/03/2022 07:36:38 81.09, 104.59 77.62 0.65 39
6 04/03/2022 08:26:43 -81.11, -87.45 102.33 04/03/2022 08:27:17 -81.11, -87.31 102.30 2.60 34
7 04/06/2022 03:11:29 81.08, 170.94 76.58 04/06/2022 03:11:01 81.09, 171.07 76.59 2.43 28
8 04/06/2022 04:00:55 -81.11, -21.04 103.38 04/06/2022 04:01:41 -81.10, -21.19 103.38 2.60 46
9 04/08/2022 22:45:39 81.10,-122.38 75.58 04/08/2022 22:45:23 81.09,-122.45 75.56 1.19 16



Historial Predications of SNOs between LANDSAT-8 and METOP-B
